Change the Weather History Date:

Friday, March 14, 2014

  Actual Average (KLOZ) Record (KLOZ)
Temperature  
Mean Temperature 39 °F 47 °F  
Max Temperature 59 °F 58 °F 83 °F (1973)
Min Temperature 19 °F 36 °F -1 °F (1960)
Degree Days  
Heating Degree Days 26 18  
Month to date heating degree days 281  
Since 1 July heating degree days 3557  
Cooling Degree Days 0 0  
Month to date cooling degree days 0  
Year to date cooling degree days 0  
Moisture  
Dew Point 22 °F    
Average Humidity 47    
Maximum Humidity 93    
Minimum Humidity 27    
Precipitation  
Precipitation 0.00 in 0.13 in 1.31 in (1964)
Month to date precipitation 1.83  
Year to date precipitation 9.08  
Sea Level Pressure  
Sea Level Pressure 30.20 in    
Wind  
Wind Speed 4 mph (SW)    
Max Wind Speed 20 mph    
Max Gust Speed 30 mph    
Visibility 11 miles    
Events      
T = Trace of Precipitation, MM = Missing Value Source: NWS Daily Summary

Daily Weather History Graph

Daily Weather History Graph

Search for Another Location

Airport or City:

Trip Planner

Search our weather history database for the weather conditions in past years. The results will help you decide how hot, cold, wet, or windy it might be!

Date:

Astronomy

Mar. 14, 2014 Rise Set
Actual Time 7:45 AM EDT 7:39 PM EDT
Civil Twilight 7:19 AM EDT 8:05 PM EDT
Nautical Twilight 6:49 AM EDT 8:35 PM EDT
Astronomical Twilight 6:19 AM EDT 9:05 PM EDT
Moon 6:02 PM EDT (3/14) 6:22 AM EDT (3/14)
Length of Visible Light 12h 45m
Length of Day
11h 54m
Waxing Gibbous, 96% of the Moon is Illuminated
Mar 14
Waxing Gibbous
Mar 16
Full
Mar 23
Last Quarter
Mar 30
New
Apr 7
First Quarter

Hourly Weather History & Observations

Time (EDT) Temp. Dew Point Humidity Pressure Visibility Wind Dir Wind Speed Gust Speed Precip Events Conditions
12:55 AM - - N/A% 30.23 in 10.0 mi North - - N/A   Unknown
1:15 AM - - N/A% - 10.0 mi North - - N/A   Unknown
1:35 AM 23.0 °F 17.6 °F 80% - 10.0 mi North - - N/A   Clear
1:50 AM - - N/A% - - Calm Calm - N/A   Clear
2:15 AM - - N/A% - 10.0 mi North - - N/A   Unknown
3:00 AM 23.0 °F 17.6 °F 80% 30.25 in 10.0 mi Calm Calm - N/A   Clear
3:01 AM 23.0 °F 17.6 °F 80% 30.25 in 10.0 mi Calm Calm - N/A   Clear
3:03 AM 23.0 °F 17.6 °F 80% 30.25 in 10.0 mi Calm Calm - N/A   Clear
3:21 AM 21.2 °F 17.6 °F 86% 30.24 in 10.0 mi Calm Calm - N/A   Clear
3:22 AM 21.2 °F 17.6 °F 86% 30.24 in 10.0 mi Calm Calm - N/A   Clear
3:30 AM - - N/A% 30.24 in 18.0 mi North - - N/A   Unknown
4:00 AM - - N/A% - 10.0 mi North - - N/A   Unknown
4:10 AM 19.4 °F 17.6 °F 93% 30.24 in - Calm Calm - N/A   Clear
4:38 AM - - N/A% - 18.0 mi North - - N/A   Unknown
5:20 AM - - N/A% - 10.0 mi North - - N/A   Unknown
5:41 AM 19.4 °F 17.6 °F 93% 30.25 in 10.0 mi Calm Calm - N/A   Clear
5:42 AM 19.4 °F 17.6 °F 93% 30.25 in 10.0 mi Calm Calm - N/A   Clear
5:55 AM 19.4 °F 17.6 °F 93% - 10.0 mi Calm Calm - N/A   Clear
6:15 AM - - N/A% - - Calm Calm - N/A   Clear
6:35 AM 19.4 °F 17.6 °F 93% - 10.0 mi Calm Calm - N/A   Clear
6:50 AM - - N/A% - - Calm Calm - N/A   Clear
7:15 AM - - N/A% - - Calm Calm - N/A   Clear
7:35 AM - - N/A% - 10.0 mi North - - N/A   Unknown
8:15 AM 23.0 °F 17.6 °F 80% 30.26 in 10.0 mi Calm Calm - N/A   Clear
8:41 AM 23.0 °F 19.4 °F 86% 30.26 in 10.0 mi Calm Calm - N/A   Clear
8:42 AM 23.0 °F 19.4 °F 86% 30.26 in 10.0 mi Calm Calm - N/A   Clear
8:55 AM - - N/A% - - Calm Calm - N/A   Clear
9:58 AM - - N/A% - 18.0 mi North - - N/A   Unknown
10:10 AM - - N/A% - 18.0 mi North - - N/A   Unknown
10:35 AM - - N/A% - 10.0 mi Calm Calm - N/A   Clear
11:15 AM - - N/A% - 10.0 mi North - - N/A   Clear
11:55 AM - - N/A% - 18.0 mi North - - N/A   Unknown
12:10 PM - - N/A% - 10.0 mi North - - N/A   Clear
12:45 PM 50.0 °F 19.4 °F 30% 30.28 in 10.0 mi WSW 9.2 mph - N/A   Clear
12:46 PM 50.0 °F 19.4 °F 30% 30.28 in 10.0 mi WSW 9.2 mph - N/A   Clear
1:15 PM 55.4 °F 23.0 °F 29% 30.18 in 10.0 mi North - - N/A   Clear
1:38 PM 55.4 °F 24.8 °F 31% 30.17 in 10.0 mi North - - N/A   Clear
1:55 PM - - N/A% - 10.0 mi SSW 12.7 mph - N/A   Clear
2:35 PM 57.2 °F 24.8 °F 29% 30.12 in 10.0 mi North - - N/A   Clear
3:00 PM 57.2 °F 24.8 °F 29% 30.11 in 10.0 mi SW 18.4 mph 29.9 mph N/A   Clear
3:03 PM 57.2 °F 24.8 °F 29% 30.11 in 10.0 mi SW 18.4 mph 29.9 mph N/A   Clear
3:04 PM 57.2 °F 24.8 °F 29% 30.11 in 10.0 mi SW 18.4 mph 29.9 mph N/A   Clear
3:22 PM 57.2 °F 24.8 °F 29% 30.08 in 10.0 mi SSW 15.0 mph 28.8 mph N/A   Clear
3:23 PM 57.2 °F 24.8 °F 29% 30.08 in 10.0 mi SSW 15.0 mph 28.8 mph N/A   Clear
3:24 PM 57.2 °F 24.8 °F 29% 30.08 in 10.0 mi SSW 15.0 mph 28.8 mph N/A   Clear
3:45 PM 57.2 °F 24.8 °F 29% 30.08 in 10.0 mi SW 18.4 mph 24.2 mph N/A   Clear
3:46 PM 57.2 °F 24.8 °F 29% 30.08 in 10.0 mi SW 18.4 mph 24.2 mph N/A   Clear
3:55 PM 59.0 °F 24.8 °F 27% 30.06 in 10.0 mi North - - N/A   Clear
4:10 PM - - N/A% - 10.0 mi North - - N/A   Clear
4:35 PM 59.0 °F 24.8 °F 27% 30.05 in 10.0 mi North - - N/A   Clear
4:55 PM 59.0 °F 24.8 °F 27% 30.04 in 10.0 mi North - - N/A   Clear
5:15 PM - - N/A% - 10.0 mi North - - N/A   Unknown
5:35 PM 57.2 °F 24.8 °F 29% - 10.0 mi SW 16.1 mph 20.7 mph N/A   Unknown
5:50 PM - - N/A% - 10.0 mi North - - N/A   Clear
6:22 PM 57.2 °F 23.0 °F 27% - 10.0 mi SW 11.5 mph 21.9 mph N/A   Clear
6:23 PM 57.2 °F 23.0 °F 27% - 10.0 mi SW 11.5 mph 21.9 mph N/A   Clear
6:24 PM 57.2 °F 23.0 °F 27% - 10.0 mi SW 11.5 mph 21.9 mph N/A   Clear
6:50 PM - - N/A% - 10.0 mi North - - N/A   Clear
7:20 PM - - N/A% - 10.0 mi North - - N/A   Clear
7:55 PM 55.4 °F 23.0 °F 29% 30.03 in 10.0 mi North - - N/A   Mostly Cloudy
8:15 PM 55.4 °F 24.8 °F 31% 30.84 in 10.0 mi North - - N/A   Overcast
8:35 PM 55.4 °F 24.8 °F 31% 30.84 in 10.0 mi North - - N/A   Overcast
8:55 PM 55.4 °F 24.8 °F 31% 30.04 in 10.0 mi North - - N/A   Overcast
9:35 PM 57.2 °F 24.8 °F 29% 30.04 in - SW 19.6 mph 27.6 mph N/A   Overcast
10:00 PM 57.2 °F 26.6 °F 31% 30.04 in 10.0 mi SW 13.8 mph 20.7 mph N/A   Overcast
10:02 PM 57.2 °F 26.6 °F 31% 30.04 in 10.0 mi SW 13.8 mph 20.7 mph N/A   Overcast
10:04 PM 57.2 °F 26.6 °F 31% 30.04 in 10.0 mi SW 13.8 mph 20.7 mph N/A   Overcast
10:10 PM 57.2 °F 26.6 °F 31% - 10.0 mi SW 10.4 mph 19.6 mph N/A   Unknown
10:40 PM 55.4 °F 28.4 °F 36% 30.04 in - SW 6.9 mph - N/A   Overcast
11:15 PM - - N/A% - 18.0 mi North - - N/A   Unknown
11:35 PM 55.4 °F 26.6 °F 33% 30.84 in 10.0 mi North - - N/A   Overcast